Wind_Speed
24 27 23 21 23 23 26 25 25 22 31 35 36 44 38 44 39 39 46 52 54 57 56 58 60 63 65 49 39 40 32 37 34 33 26 29 42 52 50 45 44 40 41
22 25 23 24 22 20 22 20 19 23 33 35 37 44 45 43 42 51 46 51 52 53 58 60 63 65 70 64 59 51 46 39 42 35 26 28 35 47 47 51 48 50 45
22 21 20 20 19 19 17 14 15 29 34 35 39 43 44 43 45 49 51 51 54 56 55 60 67 68 76 74 67 54 56 49 48 41 27 23 32 45 24 39 50 48 47
18 18 19 18 15 16 16 18 20 26 32 34 38 47 43 46 47 49 48 55 61 64 60 67 68 69 79 80 79 70 61 61 57 46 30 26 37 59 45 48 55 51 48
17 15 13 14 16 19 19 22 24 26 23 31 37 44 40 45 44 46 50 61 64 63 65 69 71 76 82 83 85 81 72 73 61 45 30 20 37 62 55 46 51 58 55
13 16 19 18 19 21 23 22 26 26 30 32 39 40 45 46 42 46 53 61 62 71 64 68 72 76 82 88 88 82 80 76 70 44 26 14 42 65 61 52 47 53 55
10 11 16 22 24 26 27 23 26 30 33 31 33 43 49 49 43 46 51 59 62 60 72 71 71 77 82 89 94 89 87 83 72 44 25 12 49 69 62 57 49 55 59
7 12 17 20 21 22 24 24 26 25 27 30 37 41 51 49 43 49 53 57 62 63 71 71 73 77 83 89 95 92 92 89 76 42 22 14 53 73 68 59 54 59 59
9 11 16 18 22 24 21 23 19 24 25 33 36 35 46 45 44 52 54 59 62 65 69 71 74 77 84 91 93 96 92 92 76 40 16 16 53 74 70 64 52 55 58
9 12 14 16 19 22 20 17 22 29 29 35 39 46 43 41 49 47 57 56 61 68 72 73 74 80 86 92 97 99 98 98 67 37 18 17 50 80 72 66 63 59 59
10 12 14 16 16 21 20 21 26 31 28 33 34 41 46 45 52 50 58 59 65 67 72 76 76 80 86 91 97 103 102 93 57 29 16 20 45 84 78 74 65 67 69
14 14 14 15 18 20 24 24 29 32 31 33 34 37 37 39 50 49 50 59 67 66 72 76 75 81 86 94 100 103 103 87 54 20 18 22 43 85 81 76 66 68 61
17 16 17 19 19 21 24 27 31 30 34 31 35 36 40 41 44 45 51 60 60 63 71 77 79 83 90 94 98 103 101 76 43 15 20 23 44 76 89 76 68 63 57
23 23 24 24 24 27 30 34 32 33 33 33 26 32 35 34 43 42 53 59 56 65 72 73 78 83 88 98 102 111 95 69 35 12 20 26 47 71 94 80 71 66 58
33 32 32 31 30 30 30 31 34 35 34 30 28 26 31 27 38 44 57 55 60 65 70 73 80 84 92 100 107 111 92 48 29 9 18 30 49 71 93 85 73 61 62
42 42 40 38 37 36 35 34 32 34 32 30 30 25 29 38 44 47 58 48 54 63 66 72 80 85 95 103 108 106 83 40 17 7 17 35 53 76 94 86 76 64 57
45 46 45 45 42 42 41 38 34 33 36 34 31 29 32 27 39 47 47 48 53 60 60 75 77 85 91 104 104 104 65 33 11 2 22 41 62 83 93 85 80 73 62
48 50 52 49 46 45 44 42 36 33 32 36 37 36 37 39 44 43 43 45 49 54 61 73 77 81 90 98 101 93 52 25 11 8 27 47 64 88 93 88 81 68 60
53 53 54 53 50 47 45 40 41 38 39 39 41 43 42 40 41 48 41 43 43 49 60 69 76 78 86 91 97 79 46 31 16 14 34 54 68 91 90 85 78 69 59
58 58 59 57 52 50 50 48 45 46 46 47 49 50 49 47 45 44 43 44 46 51 59 66 67 75 77 83 91 78 43 34 22 25 43 55 77 90 83 74 68 69 54
51 52 55 60 59 53 56 58 55 56 56 56 56 57 56 55 50 43 43 42 47 50 55 56 56 68 68 75 80 75 53 47 27 36 54 57 76 82 70 66 61 64 53
32 31 32 36 38 40 42 43 50 57 60 62 58 59 58 49 45 43 42 40 48 43 47 48 52 56 60 66 69 73 58 57 39 41 52 59 73 65 63 59 61 56 50
33 33 32 31 33 34 36 35 35 36 36 38 40 40 42 45 46 43 42 37 38 36 38 39 42 44 49 57 60 63 56 59 63 62 59 62 61 63 58 59 57 52 50
40 39 38 38 37 36 35 34 33 32 32 33 34 35 37 38 38 38 34 32 32 28 32 31 33 36 39 47 53 52 53 51 53 55 54 56 56 54 55 51 48 47 42
47 46 45 43 43 41 42 39 37 36 36 34 34 33 33 34 32 31 28 27 25 25 20 22 31 28 29 37 42 39 37 41 42 40 39 42 44 44 46 43 41 39 36
51 50 50 49 48 47 48 47 43 42 41 40 38 38 35 33 32 32 29 29 29 25 19 24 29 25 18 24 30 31 26 30 37 36 34 31 34 37 39 37 35 33 29
Wind_Direction
79 78 65 65 75 85 94 93 82 63 49 34 23 16 12 14 21 19 18 14 11 11 12 8 5 5 3 4 356 354 331 330 314 304 286 256 223 217 220 223 216 227 226
72 66 69 56 73 73 91 80 73 49 29 22 17 14 10 7 12 16 13 10 7 6 11 7 5 2 0 359 357 355 346 326 327 304 288 267 229 210 213 218 218 220 217
68 66 62 59 59 82 81 91 39 25 16 10 13 11 8 11 10 10 12 9 10 11 7 7 4 1 360 357 355 349 347 337 325 311 289 264 226 195 199 215 215 209 217
70 70 61 51 39 48 39 32 13 6 1 359 3 4 7 8 9 9 3 6 7 10 2 1 3 359 360 355 351 351 347 343 334 316 295 275 213 186 192 204 205 198 204
63 56 48 34 18 8 359 350 355 353 345 351 352 358 7 7 6 6 4 5 3 4 3 359 358 358 358 355 349 349 345 340 341 320 300 279 201 186 180 186 196 195 196
52 49 37 24 11 5 2 358 1 1 358 14 1 10 6 5 3 4 6 7 2 8 359 358 358 356 356 353 350 348 344 344 342 326 308 260 189 180 179 175 187 185 190
58 34 25 19 15 15 8 2 11 5 7 4 3 358 3 3 2 3 3 3 359 358 358 358 356 356 354 353 349 345 342 343 342 333 305 237 184 177 171 175 181 185 184
11 13 7 7 10 4 360 360 12 14 18 3 4 4 1 357 358 2 4 0 356 356 355 358 354 354 352 350 346 345 343 344 342 335 297 218 180 177 172 169 174 177 182
324 338 344 356 360 359 355 358 11 7 17 356 4 356 0 2 358 360 360 357 356 355 357 355 354 353 349 347 346 346 343 344 339 332 301 211 178 176 172 169 170 171 180
309 308 325 342 349 355 0 13 8 13 10 358 359 353 357 359 359 356 360 356 357 358 358 354 351 351 349 349 348 342 340 342 340 328 293 214 176 176 173 168 174 175 166
306 300 301 315 330 342 338 347 348 356 6 355 8 3 358 352 348 353 1 353 353 357 356 351 350 350 348 346 346 340 341 342 338 319 280 203 177 177 176 171 173 174 175
315 317 316 317 316 329 329 324 335 344 354 7 1 348 347 342 341 350 351 344 349 351 352 347 347 348 347 349 347 341 341 340 339 313 255 195 184 180 175 168 173 174 179
307 309 314 319 322 321 321 317 320 325 334 349 352 358 351 341 342 341 344 340 345 344 344 346 348 348 346 347 348 344 341 340 335 310 232 201 185 179 175 170 171 169 179
291 293 294 297 302 307 313 317 318 320 325 339 349 342 336 336 351 336 330 338 343 342 345 347 348 348 345 349 348 346 343 338 333 310 218 197 181 177 176 172 169 170 173
282 283 287 290 296 301 305 310 314 318 319 329 341 337 335 336 339 326 325 332 336 342 348 348 352 350 347 351 350 345 343 338 332 280 209 186 178 174 175 172 170 172 173
277 281 284 286 290 293 294 297 302 306 314 312 319 324 318 321 325 323 327 337 338 342 345 347 349 350 349 349 353 346 345 343 334 260 186 177 173 171 173 170 169 166 164
275 278 280 281 284 288 290 291 290 294 303 307 313 314 318 313 316 324 327 334 338 336 339 341 348 348 347 351 357 350 349 354 352 171 168 168 167 169 171 168 169 168 164
275 278 279 277 278 282 284 288 283 289 299 304 308 309 312 314 316 316 326 332 336 338 338 347 349 349 351 356 360 354 357 9 33 123 158 161 160 167 169 170 173 168 168
274 277 280 279 280 282 284 288 280 282 289 296 302 306 309 312 313 318 326 333 338 342 340 345 347 349 354 3 0 1 6 27 53 120 149 153 158 166 168 172 175 167 160
274 273 273 273 276 277 282 284 285 284 286 290 294 299 303 305 308 313 317 323 327 333 341 346 352 351 2 10 6 9 25 33 64 121 143 145 155 162 168 169 169 166 161
273 276 278 277 281 286 280 281 283 283 285 289 291 294 298 299 297 303 309 316 322 325 338 348 353 355 6 14 11 15 37 48 73 124 135 141 152 163 161 163 165 164 164
279 279 284 284 288 290 289 290 287 286 287 288 290 289 291 295 296 296 301 305 313 325 337 347 353 1 7 18 17 22 37 58 78 110 120 134 151 154 155 154 155 155 152
269 272 278 284 286 287 287 289 291 291 291 295 296 297 296 295 294 293 292 297 308 321 333 341 357 10 10 16 21 26 38 58 82 95 107 122 134 140 143 147 149 148 154
272 276 280 282 284 286 287 288 292 294 296 298 301 304 302 302 301 293 292 288 298 312 331 335 354 16 13 15 21 24 39 59 65 87 107 123 130 137 140 140 143 151 154
274 276 277 280 282 283 284 285 287 289 290 293 297 301 305 307 309 305 292 287 297 301 323 340 350 5 21 10 24 22 49 70 79 87 103 118 128 132 140 144 148 151 151
275 277 279 281 283 284 285 285 285 284 284 287 288 289 292 296 302 307 314 289 281 288 292 298 314 333 11 21 25 20 48 80 95 101 107 118 129 137 144 148 151 152 156
Height
11000 10999 11001 10999 10998 10997 10994 10992 10991 10990 10988 10983 10979 10974 10969 10965 10958 10951 10945 10939 10933 10928 10919 10911 10905 10897 10888 10882 10877 10871 10863 10857 10849 10846 10841 10842 10845 10855 10866 10873 10881 10886 10894
11005 11002 11002 11002 11000 10998 10997 10995 10993 10991 10988 10984 10980 10975 10969 10963 10957 10950 10944 10938 10933 10926 10918 10911 10902 10892 10882 10872 10867 10860 10852 10843 10836 10830 10826 10827 10832 10840 10850 10860 10870 10879 10888
11008 11007 11005 11003 11003 11002 10999 10996 10994 10990 10987 10982 10979 10974 10968 10962 10954 10948 10941 10937 10931 10923 10914 10907 10898 10889 10879 10868 10857 10850 10843 10835 10825 10814 10809 10811 10815 10827 10838 10849 10858 10869 10879
11011 11009 11007 11007 11005 11003 11000 10997 10995 10991 10987 10983 10978 10972 10967 10961 10954 10949 10943 10936 10927 10917 10910 10901 10892 10881 10872 10861 10848 10839 10828 10818 10806 10797 10792 10790 10794 10807 10820 10834 10843 10859 10869
11012 11011 11010 11008 11006 11003 11000 10997 10994 10992 10987 10983 10978 10972 10967 10960 10954 10948 10943 10935 10923 10913 10904 10897 10886 10876 10865 10852 10839 10829 10817 10805 10792 10781 10775 10773 10779 10794 10807 10823 10836 10849 10860
11014 11012 11010 11008 11006 11003 11001 10997 10994 10990 10985 10982 10978 10973 10967 10960 10952 10945 10938 10929 10921 10909 10904 10894 10882 10871 10858 10846 10833 10820 10806 10791 10777 10767 10762 10761 10768 10785 10798 10814 10827 10841 10854
11015 11014 11011 11009 11006 11004 11001 10997 10994 10990 10985 10984 10979 10974 10967 10959 10951 10943 10936 10927 10916 10909 10899 10889 10878 10865 10854 10844 10828 10809 10792 10779 10765 10755 10751 10753 10761 10776 10792 10806 10821 10835 10849
11014 11013 11011 11009 11007 11005 11002 10998 10996 10993 10992 10987 10981 10975 10966 10958 10950 10943 10935 10926 10916 10906 10895 10882 10872 10859 10850 10838 10824 10804 10784 10765 10754 10745 10741 10744 10756 10770 10784 10799 10814 10828 10844
11015 11014 11012 11010 11008 11005 11002 11000 10997 10994 10991 10988 10982 10974 10966 10958 10950 10942 10933 10925 10917 10907 10896 10882 10870 10857 10846 10834 10814 10799 10776 10760 10744 10736 10733 10737 10749 10766 10780 10793 10807 10822 10839
11017 11014 11013 11012 11009 11007 11004 11001 10997 10993 10989 10983 10978 10972 10964 10956 10949 10941 10932 10926 10917 10906 10894 10882 10869 10855 10839 10824 10807 10788 10769 10749 10733 10728 10725 10730 10742 10759 10774 10787 10801 10816 10829
11014 11013 11012 11011 11009 11007 11004 11000 10996 10991 10988 10981 10975 10968 10960 10954 10947 10940 10932 10923 10916 10904 10892 10880 10866 10851 10835 10819 10797 10776 10756 10740 10729 10719 10717 10724 10736 10752 10767 10782 10796 10810 10821
11011 11010 11009 11008 11006 11004 11001 10997 10994 10990 10987 10981 10976 10970 10960 10952 10946 10939 10930 10920 10912 10903 10894 10882 10866 10848 10831 10814 10793 10771 10747 10728 10713 10711 10710 10714 10729 10746 10761 10777 10795 10808 10821
11010 11009 11007 11005 11004 11002 10999 10994 10991 10989 10986 10982 10977 10970 10964 10955 10946 10938 10929 10922 10913 10903 10893 10877 10860 10843 10827 10809 10787 10763 10736 10717 10705 10702 10702 10706 10720 10736 10757 10775 10792 10806 10817
11007 11006 11004 11003 11001 10999 10995 10992 10990 10987 10984 10981 10977 10972 10964 10955 10946 10937 10930 10922 10914 10902 10890 10876 10860 10841 10823 10804 10779 10751 10722 10702 10695 10690 10691 10698 10711 10728 10753 10773 10791 10804 10819
11001 11000 10999 10997 10996 10994 10992 10989 10986 10983 10980 10978 10974 10971 10963 10952 10947 10939 10931 10924 10914 10902 10890 10876 10859 10839 10818 10795 10772 10738 10712 10693 10684 10680 10682 10692 10705 10722 10749 10772 10790 10807 10819
10992 10991 10990 10990 10989 10988 10986 10985 10982 10978 10976 10975 10972 10969 10962 10956 10943 10938 10935 10925 10915 10904 10891 10877 10858 10838 10816 10791 10763 10726 10698 10683 10675 10673 10676 10687 10702 10719 10748 10771 10789 10808 10821
10983 10983 10982 10981 10981 10980 10979 10977 10976 10973 10971 10969 10967 10966 10961 10956 10937 10935 10932 10924 10916 10905 10893 10879 10859 10839 10818 10791 10759 10721 10691 10677 10673 10671 10676 10687 10701 10722 10751 10773 10791 10810 10825
10973 10972 10972 10972 10971 10970 10969 10968 10967 10967 10965 10963 10961 10959 10956 10952 10945 10936 10931 10925 10916 10906 10894 10881 10862 10841 10820 10795 10764 10726 10699 10683 10677 10676 10680 10692 10707 10730 10757 10777 10796 10816 10833
10963 10962 10961 10961 10961 10960 10960 10959 10959 10958 10956 10955 10953 10952 10950 10947 10941 10935 10930 10923 10916 10907 10894 10882 10866 10847 10828 10804 10774 10738 10709 10691 10685 10685 10690 10702 10717 10741 10764 10786 10805 10824 10841
10952 10950 10950 10950 10950 10951 10951 10951 10951 10949 10948 10946 10944 10943 10942 10941 10937 10931 10927 10921 10915 10907 10897 10887 10872 10856 10838 10817 10789 10753 10724 10708 10699 10699 10706 10718 10733 10756 10776 10799 10820 10838 10853
10940 10938 10938 10938 10938 10938 10940 10939 10939 10938 10937 10936 10935 10933 10932 10932 10930 10927 10922 10918 10912 10908 10900 10893 10879 10866 10850 10832 10810 10781 10751 10729 10719 10719 10729 10739 10755 10776 10798 10815 10832 10849 10861
10930 10930 10930 10929 10928 10928 10927 10927 10927 10927 10927 10926 10923 10923 10922 10923 10921 10920 10917 10913 10911 10908 10903 10897 10885 10875 10864 10849 10833 10810 10790 10763 10751 10752 10756 10764 10781 10801 10817 10830 10845 10859 10871
10923 10923 10922 10921 10922 10921 10920 10921 10920 10919 10918 10916 10913 10913 10912 10911 10912 10912 10910 10908 10908 10906 10904 10899 10892 10883 10874 10863 10849 10832 10817 10808 10793 10786 10789 10799 10813 10824 10835 10846 10857 10868 10880
10915 10915 10914 10914 10913 10913 10912 10913 10913 10911 10910 10909 10907 10906 10904 10902 10902 10901 10902 10902 10903 10904 10904 10899 10897 10892 10882 10874 10864 10851 10838 10829 10826 10822 10825 10832 10838 10845 10853 10862 10871 10880 10888
10906 10905 10906 10906 10905 10904 10904 10903 10903 10904 10903 10902 10901 10900 10899 10897 10896 10895 10895 10896 10899 10900 10901 10898 10897 10896 10891 10884 10878 10868 10860 10851 10850 10850 10853 10855 10858 10863 10869 10876 10883 10889 10895
10894 10894 10894 10895 10894 10893 10893 10893 10894 10894 10893 10894 10893 10892 10893 10892 10891 10890 10889 10889 10891 10894 10896 10897 10895 10897 10897 10892 10886 10883 10876 10869 10866 10866 10867 10870 10874 10878 10883 10887 10891 10895 10900